Taunton, MA

8:39 PM EDT on March 28, 2017 (GMT -0400)
Taunton Municipal

Weather History for KTAN - August, 2014

Change the Weather History Date:

Friday, August 8, 2014

  Actual Average Record
Temperature  
Mean Temperature 66 °F -  
Max Temperature 82 °F 83 °F 94 °F (1949)
Min Temperature 50 °F 61 °F 46 °F (1948)
Cooling Degree Days 1    
Growing Degree Days 16 (Base 50)    
Moisture  
Dew Point 54 °F    
Average Humidity 76    
Maximum Humidity 97    
Minimum Humidity 36    
Precipitation  
Precipitation 0.00 in - - ()
Sea Level Pressure  
Sea Level Pressure 29.97 in    
Wind  
Wind Speed 1 mph (NW)    
Max Wind Speed 8 mph    
Max Gust Speed -    
Visibility 8 miles    
Events      
Averages and records for this station are not official NWS values.
T = Trace of Precipitation, MM = Missing Value Source: NWS Daily Summary

Daily Weather History Graph

Daily Weather History Graph

Search for Another Location

Airport or City:

Trip Planner

Search our weather history database for the weather conditions in past years. The results will help you decide how hot, cold, wet, or windy it might be!

Date:

Astronomy

Aug. 08, 2014 Rise Set
Actual Time 5:44 AM EDT 7:53 PM EDT
Civil Twilight 5:14 AM EDT 8:24 PM EDT
Nautical Twilight 4:36 AM EDT 9:02 PM EDT
Astronomical Twilight 3:54 AM EDT 9:43 PM EDT
Moon 6:02 PM EDT (8/8) 3:13 AM EDT (8/8)
Length of Visible Light 15h 10m
Length of Day
14h 08m
Waxing Gibbous, 93% of the Moon is Illuminated
Aug 8
Waxing Gibbous
Aug 10
Full
Aug 17
Last Quarter
Aug 25
New
Sep 2
First Quarter

Hourly Weather History & Observations

Time (EDT) Temp. Heat Index Dew Point Humidity Pressure Visibility Wind Dir Wind Speed Gust Speed Precip Events Conditions
12:03 AM 54.0 °F - 53.1 °F 97% 29.95 in 2.5 mi Calm Calm - N/A   Clear
12:09 AM 54.0 °F - 53.1 °F 97% 29.95 in 1.2 mi Calm Calm - N/A   Clear
12:21 AM 54.0 °F - 52.0 °F 93% 29.95 in 0.8 mi Calm Calm - N/A   Clear
12:36 AM 53.1 °F - 52.0 °F 96% 29.95 in 1.5 mi Calm Calm - N/A   Clear
12:52 AM 53.1 °F - 52.0 °F 96% 29.94 in 1.0 mi Calm Calm - N/A   Clear
1:16 AM 52.0 °F - 51.1 °F 97% 29.94 in 3.0 mi Calm Calm - N/A   Clear
1:25 AM 52.0 °F - 51.1 °F 97% 29.94 in 2.0 mi Calm Calm - N/A   Clear
1:35 AM 52.0 °F - 51.1 °F 97% 29.94 in 5.0 mi Calm Calm - N/A   Clear
1:52 AM 52.0 °F - 50.0 °F 93% 29.95 in 10.0 mi Calm Calm - N/A   Clear
2:52 AM 54.0 °F - 53.1 °F 97% 29.94 in 10.0 mi Calm Calm - N/A   Clear
3:52 AM 52.0 °F - 50.0 °F 93% 29.95 in 8.0 mi Calm Calm - N/A   Clear
4:52 AM 53.1 °F - 51.1 °F 93% 29.96 in 10.0 mi Calm Calm - N/A   Clear
5:52 AM 50.0 °F - 48.9 °F 96% 29.98 in 6.0 mi Calm Calm - N/A   Clear
6:52 AM 57.9 °F - 55.0 °F 90% 29.99 in 10.0 mi Calm Calm - N/A   Clear
7:52 AM 64.0 °F - 57.0 °F 78% 30.00 in 10.0 mi NW 4.6 mph - N/A   Clear
8:52 AM 69.1 °F - 57.0 °F 65% 30.01 in 10.0 mi NNW 5.8 mph - N/A   Clear
9:52 AM 73.0 °F - 57.0 °F 57% 30.01 in 10.0 mi North 5.8 mph - N/A   Clear
10:52 AM 75.0 °F - 57.0 °F 53% 30.01 in 10.0 mi Variable 5.8 mph - N/A   Clear
11:52 AM 79.0 °F - 55.9 °F 45% 29.99 in 10.0 mi NNW 5.8 mph - N/A   Clear
12:52 PM 80.1 °F 80.0 °F 54.0 °F 40% 29.99 in 10.0 mi NNW 8.1 mph - N/A   Clear
1:52 PM 82.0 °F 81.3 °F 54.0 °F 38% 29.98 in 10.0 mi Variable 4.6 mph - N/A   Partly Cloudy
2:52 PM 82.0 °F 81.3 °F 54.0 °F 38% 29.97 in 10.0 mi NNW 4.6 mph - N/A   Clear
3:52 PM 81.0 °F - 52.0 °F 36% 29.96 in 10.0 mi NW 5.8 mph - N/A   Clear
4:52 PM 81.0 °F 80.5 °F 54.0 °F 39% 29.96 in 10.0 mi West 8.1 mph - N/A   Clear
5:52 PM 81.0 °F 80.7 °F 55.0 °F 41% 29.96 in 10.0 mi NW 3.5 mph - N/A   Partly Cloudy
6:52 PM 77.0 °F - 55.9 °F 48% 29.97 in 10.0 mi Calm Calm - N/A   Mostly Cloudy
7:52 PM 68.0 °F - 61.0 °F 78% 29.99 in 10.0 mi Calm Calm - N/A   Mostly Cloudy
8:52 PM 62.1 °F - 57.9 °F 86% 30.01 in 10.0 mi Calm Calm - N/A   Clear
9:52 PM 60.1 °F - 57.0 °F 90% 30.01 in 10.0 mi Calm Calm - N/A   Clear
10:52 PM 57.9 °F - 55.9 °F 93% 30.01 in 9.0 mi Calm Calm - N/A   Clear
11:52 PM 57.0 °F - 55.0 °F 93% 30.01 in 10.0 mi Calm Calm - N/A   Clear